Regional Weather Roundup
Issued by NWS

Home | Current Version | Previous Version | Text Only | Print | Product List | Glossary Off
Versions: 1 2 3 4 5 6 7 8 9 10 11 12 13 14 15 16 17 18 19 20 21 22 23 24 25 26 27 28 29 30 31 32 33 34 35 36 37 38 39 40 41 42 43 44 45 46 47 48 49 50

000
ASUS45 KSLC 060010
RWRUT

UTAH REGIONAL WEATHER ROUNDUP
NATIONAL WEATHER SERVICE SALT LAKE CITY UT
600 PM MDT TUE MAY 05 2015

UTZ001>011-023>025-060100-

NORTHERN UTAH

CITY           SKY/WX    TMP DP  RH WIND       PRES   REMARKS
HILL AFB       NOT AVBL
LOGAN          MOSUNNY   59  51  75 SW10      29.77F
OGDEN          PTSUNNY   66  44  45 NE12      29.76F
PROVO AIRPORT  NOT AVBL
SALT LAKE CITY PTSUNNY   67  44  43 CALM      29.75F
VERNAL         LGT RAIN  52  49  89 S7        29.82R
WENDOVER       CLOUDY    64  39  39 N16G23    29.79R
HEBER CITY     CLOUDY    61  41  48 W3        29.81S
WEST JORDAN    MOSUNNY   68  48  49 CALM      29.78F

$$

UTZ012>022-026-027-060100-

SOUTHERN/CENTRAL UTAH

CITY           SKY/WX    TMP DP  RH WIND       PRES   REMARKS
BLANDING       CLOUDY    52  48  84 S5        29.91S
BRYCE CANYON   CLOUDY    50  43  77 E9        29.92S
CEDAR CITY     CLOUDY    55  45  68 N8        29.86R THUNDER
DELTA          CLOUDY    61  48  62 S10       29.80R
HANKSVILLE     PTSUNNY   61  52  72 N6        29.79F
MILFORD        LGT RAIN  53  48  83 SE13      29.83S
MOAB/CYNLANDS  LGT RAIN  57  52  83 W8        29.77R
PRICE          LGT RAIN  54  47  77 E7        29.83R
ST GEORGE      CLOUDY    77  46  33 W12       29.76F
KANAB          MOSUNNY   70  39  32 SW15G22   29.85F

$$

REGIONAL REPORTS     COLORADO/ARIZONA

CITY           SKY/WX    TMP DP  RH WIND       PRES   REMARKS
CRAIG, CO      CLOUDY    57  43  59 SW14      29.76R
GRAND JUNCTION LGT RAIN  54  50  86 N6        29.79S
RIFLE          CLOUDY    60  45  57 N3        29.77R
MONTROSE       CLOUDY    55  48  77 E8        29.84S
CORTEZ         RAIN      52  48  86 CALM      29.86S FOG
PAGE, AZ       CLOUDY    66  43  43 CALM      29.80F
GRAND CANYON   PTSUNNY   60  39  45 W15G24    29.94F
KINGMAN        SUNNY     76  41  28 SW21G29   29.84F
FLAGSTAFF      PTSUNNY   51  46  83 SW15G22   30.00R

$$

REGIONAL REPORTS    NEVADA/IDAHO/WYOMING

CITY           SKY/WX    TMP DP  RH WIND       PRES   REMARKS
LAS VEGAS, NV  MOSUNNY   86  30  13 SW14G28   29.65F
ELY            CLOUDY    56  39  53 N18       29.90R
ELKO           PTSUNNY   71  28  20 NW13G23   29.77F
POCATELLO, ID  MOSUNNY   71  35  26 W22       29.73F
BURLEY         PTSUNNY   65  27  23 W17G23    29.75S
EVANSTON, WY   LGT RAIN  49  45  86 W10       29.89R
ROCK SPRINGS   CLOUDY    55  39  54 W12       29.81R
KEMMERER       LGT RAIN  46  45  93 S10       29.90S

$$



USA.gov is the U.S. government's official web portal to all federal, state and local government web resources and services.